Flag for Canada Weather past 2 weeks in Ottawa, Ontario, Canada

Now
79 °F

Scattered clouds.


Feels Like: 81 °F
Forecast: N/A
Wind: 7 mph from South

Location: Ottawa Int'L. Ont.

Current Time: Sep 1, 2014 at 5:30:33 PM

Latest Report: Sep 1, 2014 at 5:00 PM


Visibility: 15 mi

Pressure: 29.86 "Hg

Humidity: 65%

Dew point: 66 °F

Location of OttawaLocation

Historic Weather in Ottawa — Graph

°F

Ottawa temperature yesterday

Maximum temperature yesterday: 79 °F (at 1:00 PM)
Minimum temperature yesterday: 68 °F (at 5:00 AM)
Average temperature yesterday: 72 °F

Past Weeks' High & Low Weather Summary

 TemperatureHumidityPressure
High84 °F (Aug 26, 3:00 PM)100% (Aug 18, 5:00 AM)30.22 "Hg (Aug 18, 5:00 AM)
Low48 °F (Aug 18, 6:00 AM)41% (Aug 19, 4:00 PM)29.81 "Hg (Aug 31, 5:00 PM)
Average67 °F78%30.01 "Hg
* Reported Aug 17 4:00 PM — Sep 1 4:00 PM, Ottawa, Weather by CustomWeather, © 2014

Note: Actual official high and low records may vary slightly from our data, if they occured in-between our weather recording intervals... More about our weather records

Advertising

Ottawa weather history for previous 24 hours

 ConditionsComfort  
Time TempWeatherWind HumidityBarometerVisibility
4:00 PM
Sep 1
79 °FScattered clouds.7 mph65%29.88 "Hg15 mi
3:00 PM79 °FPassing clouds.9 mph65%29.90 "Hg15 mi
2:00 PM77 °FPassing clouds.8 mph65%29.92 "Hg15 mi
1:00 PM75 °FScattered clouds.3 mph65%29.93 "Hg15 mi
12:00 PM73 °FPartly sunny.8 mph74%29.94 "Hg15 mi
11:00 AM70 °FPartly sunny.8 mph83%29.94 "Hg15 mi
10:00 AM70 °FPartly sunny.3 mph83%29.95 "Hg15 mi
9:00 AM66 °FPartly sunny.5 mph94%29.95 "Hg15 mi
8:00 AM64 °FPartly sunny.5 mph94%29.95 "Hg15 mi
7:00 AM63 °FPassing clouds.5 mph94%29.95 "Hg15 mi
6:00 AM63 °FPassing clouds.6 mph94%29.95 "Hg15 mi
5:00 AM63 °FPassing clouds.7 mph94%29.93 "Hg15 mi
4:00 AM64 °FPassing clouds.5 mph94%29.92 "Hg15 mi
3:00 AM64 °FPassing clouds.5 mph100%29.91 "Hg15 mi
2:00 AM64 °FPassing clouds.6 mph100%29.90 "Hg15 mi
1:00 AM64 °FPassing clouds.3 mph94%29.91 "Hg15 mi
12:00 AM66 °FPassing clouds.6 mph94%29.90 "Hg15 mi
11:00 PM
Aug 31
68 °FPassing clouds.7 mph94%29.89 "Hg15 mi
10:00 PM68 °FPassing clouds.7 mph94%29.89 "Hg15 mi
9:00 PM70 °FPartly cloudy.3 mph94%29.88 "Hg15 mi
8:52 PM70 °FPartly cloudy.6 mph94%29.88 "Hg15 mi
8:00 PM68 °FScattered showers. Broken clouds.7 mph94%29.86 "Hg15 mi
7:00 PM68 °FScattered showers. Broken clouds.8 mph94%29.85 "Hg15 mi
6:54 PM68 °FSprinkles. Partly sunny.8 mph94%29.85 "Hg15 mi
6:00 PM75 °FThunderstorms. Cloudy.15 mph65%29.85 "Hg10 mi
5:00 PM79 °FPartly sunny.10 mph74%29.81 "Hg15 mi
Weather by CustomWeather, © 2014

See weather overviewHow to use our weather pages